YAMAL 601

Last updated on Thu Nov 21 2024 00:02:44 GMT+0000 (Coordinated Universal Time)

1 44307U 19031A 24325.01909862 .00000121 00000+0 00000+0 0 9995 2 44307 0.0141 38.8588 0002620 203.5877 232.9659 1.00271313 20161
UTC large
Height (km)
Speed (km/s)
/
Latitude / Longitude
Inclination (degrees)
Orbital Period (minutes)
Azimuth
Elevation
Range (km)
Doppler Factor

Next 0 passes for location: London (51.5072 / 0.1276)

Sorry there are no passes over London.